Location: Bacharowice
(49.9333°N, 19.5833°E)
Time: 23:36:05
(UTC+00:00)

USA 305 - Pass Details

Date: 23 September 2021
Orbit: 547 x 588 km, 54.0° (Epoch: 03 October)

Event Time Altitude Azimuth Distance (km) Brightness Sun altitude
Rises 20:28:47 0° 295° (WNW) 2,763 7.2 -33.8°
Reaches altitude 10° 20:31:04 10° 289° (WNW) 1,870 6.1 -34.0°
Enters shadow 20:31:43 14° 286° (WNW) 1,629 5.7 -34.1°
